Regional Weather Roundup
Issued by NWS

Home | Current Version | Previous Version | Graphics & Text | Print | Product List | Glossary On
Versions: 1 2 3 4 5 6 7 8 9 10 11 12 13 14 15 16 17 18 19 20 21 22 23 24 25 26 27 28 29 30 31 32 33 34 35 36 37 38 39 40 41 42 43 44 45 46 47 48 49 50
000
ASUS43 KOAX 262302
RWRNE

WEATHER ROUNDUP FOR NEBRASKA
NATIONAL WEATHER SERVICE OMAHA NE
500 PM CST SUN FEB 26 2017

NOTES: SATELLITE DATA IS BEING USED TO AUGMENT CLOUD COVER ABOVE
       12000 FEET.
       "FAIR" INDICATES FEW OR NO CLOUDS BELOW 12,000 FEET WITH NO
       SIGNIFICANT WEATHER AND/OR OBSTRUCTIONS TO VISIBILITY.

  * THESE STATIONS DO NOT REPORT WEATHER SUCH AS RAIN...SNOW OR FOG.

NEZ001>004-019>022-054>056-270000-
NEBRASKA PANHANDLE

CITY           SKY/WX    TMP DP  RH WIND       PRES   REMARKS
SCOTTSBLUFF    CLOUDY    31  14  49 W10       29.82S WCI  22
ALLIANCE       CLOUDY    24  18  77 SW6       29.81S WCI  17
CHADRON        CLOUDY    25  14  63 SW5       29.82F WCI  19
KIMBALL        SUNNY     33  20  57 S7        29.80S WCI  27
SIDNEY         SUNNY     35  16  45 SW9       29.82S WCI  28
$$

NEZ057>060-069>072-079>082-270000-
SOUTHWEST NEBRASKA

CITY           SKY/WX    TMP DP  RH WIND       PRES   REMARKS
NORTH PLATTE   SUNNY     39  11  31 W9        29.89R WCI  33
IMPERIAL       SUNNY     40  12  32 NE6       29.87S
LEXINGTON      SUNNY     41  13  31 NW7       29.90R
MCCOOK         SUNNY     43   9  24 N9        29.90R
OGALLALA       SUNNY     38  12  35 NW7       29.86S WCI  33
$$

NEZ005>010-023>029-035>040-094-270000-
NORTH CENTRAL NEBRASKA

CITY           SKY/WX    TMP DP  RH WIND       PRES   REMARKS
VALENTINE      SUNNY     29  16  58 W10       29.84S WCI  20
AINSWORTH      SUNNY     32  19  59 W8        29.85R WCI  25
BROKEN BOW     SUNNY     37  18  46 W6        29.88R WCI  32
O`NEILL        SUNNY     35  21  55 SW6       29.88S WCI  30
ORD            SUNNY     39  14  36 W5        29.88R
THEDFORD       SUNNY     32  17  52 W9        29.87R WCI  25
$$

NEZ041-046>049-061>064-073>077-083>087-270000-
SOUTH CENTRAL NEBRASKA

CITY           SKY/WX    TMP DP  RH WIND       PRES   REMARKS
GRAND ISLAND   SUNNY     43  16  33 W6        29.91R
AURORA         SUNNY     43  15  32 W3        29.91R
HASTINGS       SUNNY     44  13  28 NW7       29.91R
HEBRON         SUNNY     47  10  22 CALM      29.92R
HOLDREGE       SUNNY     42  10  26 NW5       29.90R
KEARNEY *      SUNNY     43  10  26 NW8       29.91R
YORK           SUNNY     41  19  42 NE3       29.92S
$$

NEZ011>018-030>034-042>045-270000-
NORTHEAST NEBRASKA

CITY           SKY/WX    TMP DP  RH WIND       PRES   REMARKS
NORFOLK        SUNNY     37  23  56 S8        29.91R WCI  31
ALBION         SUNNY     40  19  41 SW5       29.91R
BLAIR          SUNNY     41  25  52 NW3       29.94R
FREMONT        SUNNY     41  24  51 CALM      29.94S
TEKAMAH        SUNNY     38  26  62 CALM      29.95S
WAYNE          SUNNY     36  26  66 S5        29.92R WCI  32
$$

NEZ050>053-065>068-078-088>093-270000-
SOUTHEAST NEBRASKA

CITY           SKY/WX    TMP DP  RH WIND       PRES   REMARKS
LINCOLN        SUNNY     45  24  43 N6        29.95R
OMAHA EPPLEY   MOSUNNY   44  22  41 N5        29.95R
BEATRICE       SUNNY     47  18  31 NW9       29.93R
FALLS CITY     MOSUNNY   52  21  29 MISG      29.91R
NEBRASKA CITY  SUNNY     45  15  29 N8        29.94R
PLATTSMOUTH    SUNNY     44  13  29 NW5       29.94R
$$

NEZ044-045-051>053-067-270000-
OMAHA AREA

CITY           SKY/WX    TMP DP  RH WIND       PRES   REMARKS
OMAHA EPPLEY   MOSUNNY   44  22  41 N5        29.95R
BLAIR          SUNNY     41  25  52 NW3       29.94R
FREMONT        SUNNY     41  24  51 CALM      29.94S
MILLARD        SUNNY     45  22  41 CALM      29.95R
OFFUTT AFB     SUNNY     44  19  36 NW6       29.94R
PLATTSMOUTH    SUNNY     44  13  29 NW5       29.94R
WAHOO          FAIR      41  23  48 NE3       29.94S
$$




USA.gov is the U.S. government's official web portal to all federal, state and local government web resources and services.